Starlink 11262

operational
NORAD ID: 62009 Int'l Des: 2024-213 Owner: SPXS Country: US Constellation: starlink
LEOCIRCULAR

关于 Starlink 11262

正在加载描述...

实时位置

正在加载3D地球...

即将过境

高度历史

Altitude vs Time

uPlot chart will show altitude changes over time

两行轨道根数

1 62009U 24213B 25354.62705218 .00155206 00000-0 12593-2 0 9990
2 62009 53.1583 71.3008 0001062 71.0440 289.0693 15.69763182 62494
Epoch: Dec 20, 2025 • Age: 10 hours

当前状态

高度 359.5 km
速度 7.70 km/s
星下点 17.05°N, 132.87°E
发射日期 Nov 18, 2024
运行时间 1 years
类型 internet

技术详情

分类 Payload
质量 960.00 kg
干质量 910.00 kg
总质量 960.00 kg
长度 0.30 m
直径 4.10 m
跨度 29.00 m
形状 Box + pan
制造商 SPXS
平台类型 Starlink V2MD
阶段状态 In Orbit
所有者/国家 SPXS/US

大型星座

Loading constellations...